Theta_e
321 321 321 323 323 323 325 324 324 325 324 323 323 324 323 323 322 322 322 322 321 322 323 323 324 325 324 323 323 322 321 322 323 324 325 326 327 327 327 327 327 328 329 329 329 329 329 329 329 329 329 329 329 330 329 328 329 330 330 329 329 329 328
321 322 322 323 323 323 325 324 323 325 325 324 324 324 323 323 322 320 321 321 320 321 322 322 323 323 323 323 323 323 323 323 324 325 325 325 326 327 327 326 327 328 328 328 328 328 329 329 329 328 329 329 329 329 328 328 329 328 329 329 329 329 329
320 321 322 323 323 323 324 324 323 324 324 324 324 323 323 322 320 319 319 319 320 321 322 322 323 323 323 323 323 323 323 323 324 324 325 325 325 326 326 325 325 326 326 327 328 327 327 328 328 328 328 328 327 327 327 327 328 328 328 329 329 329 328
320 321 321 323 324 323 324 323 323 324 323 324 324 323 323 322 319 318 318 318 320 322 322 322 322 323 323 323 323 324 324 324 324 324 325 325 325 325 326 324 324 325 326 326 327 327 327 328 328 328 328 328 327 327 327 327 328 328 327 328 328 327 327
320 321 321 323 323 323 324 323 323 323 323 323 323 323 321 320 318 317 317 318 320 322 321 322 323 323 322 322 323 324 324 324 324 325 325 325 325 325 325 325 325 326 326 326 327 326 326 327 327 327 327 327 327 326 326 327 328 327 326 327 326 326 326
318 320 321 323 323 323 323 323 322 322 322 322 322 321 319 318 317 317 317 317 320 322 321 322 323 322 321 322 322 323 323 324 324 324 324 324 324 324 325 325 325 324 324 324 325 325 326 326 326 326 327 327 327 326 326 327 327 327 325 325 324 324 324
319 319 320 322 322 322 322 322 322 321 321 322 320 317 317 317 317 318 318 319 321 321 320 321 321 321 321 320 320 321 322 323 323 323 322 322 323 323 324 324 324 323 322 323 324 324 324 325 325 326 326 326 326 326 326 326 326 326 325 323 323 323 322
320 320 320 321 321 322 322 320 320 319 319 320 317 315 317 318 318 318 319 320 322 321 320 321 321 320 320 320 319 318 319 320 320 319 319 319 319 321 322 322 322 322 322 322 321 321 322 324 325 325 326 326 325 325 326 325 324 324 323 322 321 322 322
319 321 319 319 320 320 319 319 319 318 318 318 316 314 317 318 318 319 320 321 322 321 320 322 321 321 321 320 319 318 318 319 318 317 317 317 316 317 318 320 321 321 320 320 320 319 320 323 324 323 324 325 324 325 325 325 324 323 322 320 318 320 320
318 321 320 320 320 318 317 317 318 317 317 317 315 313 316 318 318 319 320 321 321 320 321 321 320 320 320 320 319 318 317 318 319 317 316 316 316 316 316 317 318 318 318 319 319 319 319 321 322 321 322 322 323 325 325 324 324 323 322 318 314 316 317
319 320 321 320 318 317 316 316 317 316 317 317 315 313 316 318 317 318 320 321 321 320 320 321 319 318 318 319 319 318 317 317 318 316 315 316 316 316 316 315 315 315 317 318 318 318 317 319 321 320 320 320 321 324 324 323 322 320 319 315 309 310 313
320 320 320 319 317 316 316 316 316 316 316 315 313 313 316 317 317 317 319 320 321 320 319 319 318 317 317 317 317 317 315 315 315 313 313 315 316 315 315 313 311 311 315 316 316 316 316 317 319 319 320 320 319 321 323 323 320 315 314 311 307 309 310
319 320 318 317 316 316 316 316 315 315 316 314 313 314 316 317 316 317 318 319 319 319 318 317 318 318 317 316 315 314 314 313 313 312 311 311 311 313 313 312 309 308 311 313 314 315 315 315 316 317 318 318 318 320 322 321 317 312 311 309 306 308 310
318 318 317 316 316 315 315 315 315 315 315 314 312 315 316 316 316 316 317 317 317 317 317 317 317 317 315 313 311 311 312 312 311 311 311 309 307 308 310 308 306 305 307 308 310 313 314 313 313 312 312 314 317 319 320 318 315 312 310 308 305 306 308
317 317 316 316 315 315 315 315 314 315 314 313 312 315 316 315 315 316 316 316 316 316 316 316 316 315 313 311 308 307 308 309 308 308 310 309 307 306 307 305 304 305 305 306 307 310 312 312 312 309 306 309 315 317 316 315 314 311 309 308 306 304 305
316 315 314 314 315 315 315 314 314 314 313 312 312 314 316 314 314 315 315 315 315 315 314 313 312 312 311 311 309 306 304 305 305 305 306 306 306 305 304 303 304 306 306 306 305 308 310 310 310 308 305 307 312 314 313 311 310 308 307 307 306 304 303
313 313 314 314 315 315 314 314 314 313 312 312 311 312 314 314 314 315 314 314 313 313 312 310 308 306 306 308 308 308 306 304 304 303 302 302 302 301 300 300 301 303 304 304 304 306 308 309 308 308 307 306 307 309 309 308 307 306 304 304 304 304 303
311 313 314 314 314 314 314 314 314 312 312 312 310 311 313 312 312 313 313 312 311 310 310 309 308 305 302 302 304 305 307 307 305 302 300 300 299 299 300 299 299 300 301 301 302 303 306 307 307 307 307 306 305 306 305 305 305 304 304 303 302 302 302
311 314 314 314 314 314 313 314 313 311 311 311 309 312 314 313 312 312 311 311 310 309 308 308 309 308 306 303 302 302 304 306 305 301 299 299 299 298 298 298 298 299 299 299 299 300 302 304 305 306 306 306 305 305 304 304 304 303 303 303 302 301 301
312 314 314 313 314 313 313 314 313 310 308 309 310 312 314 314 313 312 311 310 308 308 307 307 308 309 308 305 303 303 304 304 302 299 298 298 298 297 297 297 297 297 297 297 298 298 298 299 301 303 305 305 304 304 304 304 303 303 302 302 301 301 299
312 313 313 312 312 314 314 312 310 306 305 310 314 313 312 312 311 311 309 308 306 304 304 305 306 307 307 307 306 306 306 304 301 298 297 297 296 297 297 297 297 297 297 297 296 297 297 297 298 301 303 304 303 303 303 303 303 303 303 302 301 299 297
312 312 312 311 312 314 314 308 304 301 302 309 313 313 311 310 310 310 308 305 302 299 300 302 303 303 304 306 307 306 306 305 301 297 296 296 296 296 296 296 296 296 296 296 296 296 296 296 296 298 301 302 302 302 302 302 302 302 302 302 301 298 295
312 312 312 311 311 313 311 305 301 300 301 304 308 311 311 311 311 310 308 303 299 298 298 299 300 301 301 303 305 305 305 305 302 298 296 296 295 295 295 296 296 295 295 295 295 295 295 295 295 295 297 299 300 300 300 300 300 300 300 300 300 298 295
312 312 311 312 312 312 309 302 299 301 301 301 303 307 310 311 311 311 307 301 298 298 298 298 298 299 300 301 302 303 304 304 304 302 300 297 296 295 295 295 295 294 294 294 294 294 294 294 294 294 295 295 296 297 297 297 297 297 296 296 295 295 294
313 312 311 312 313 312 308 302 299 301 301 301 299 302 308 312 311 310 306 299 298 299 298 298 297 297 299 299 300 302 303 303 303 303 302 299 297 295 295 295 294 294 294 294 294 294 293 293 294 294 294 294 294 294 294 295 295 295 294 294 293 293 293
314 312 311 313 313 311 308 302 300 301 301 301 299 300 307 311 310 307 303 298 298 298 297 298 297 296 297 298 299 302 303 304 303 303 303 301 298 295 295 295 294 294 295 295 295 295 295 294 293 293 293 293 293 294 294 293 294 294 293 293 293 293 292
315 312 312 313 312 311 308 303 301 301 301 301 299 300 304 308 307 306 302 298 299 298 297 298 297 296 296 297 299 302 302 302 302 302 302 301 300 300 300 298 296 294 295 295 295 296 295 294 293 293 293 293 293 293 293 293 293 293 293 293 292 292 292
316 313 312 313 311 310 308 305 302 302 301 301 300 299 301 303 305 306 303 299 299 298 297 297 297 296 296 296 298 300 299 298 298 298 298 299 300 301 301 299 295 294 294 294 294 295 295 296 295 293 292 293 293 293 293 293 293 293 292 292 292 292 292
316 314 313 313 311 309 308 305 302 302 302 301 300 299 299 300 304 306 303 299 298 298 297 297 297 296 296 296 296 298 298 297 296 296 296 297 297 298 298 296 294 293 294 293 293 294 295 298 298 295 292 293 292 292 293 292 292 292 292 292 292 292 292
316 315 313 313 311 309 307 304 302 301 302 302 301 300 299 300 302 304 303 300 299 298 298 297 297 296 296 296 296 298 300 299 297 296 296 296 295 295 295 295 294 293 293 293 293 294 296 299 299 296 295 296 294 292 292 292 292 292 292 291 291 291 291
317 315 314 313 311 309 307 304 302 301 302 302 301 300 300 299 300 302 302 300 299 298 298 298 298 297 297 296 296 299 302 301 299 298 296 295 294 294 294 294 294 293 293 293 293 293 295 298 300 299 298 299 297 294 293 293 293 292 292 292 292 291 291
317 315 315 313 311 310 308 305 302 301 302 302 301 301 300 299 300 302 301 300 299 299 298 298 298 297 297 296 297 300 303 302 300 299 297 295 294 294 294 294 293 293 293 293 293 293 293 296 297 298 298 298 296 293 293 294 295 295 295 294 293 293 293
318 316 315 314 312 310 309 306 303 301 302 302 301 301 301 300 301 302 301 300 300 299 298 298 298 297 297 296 297 301 303 302 302 300 299 297 295 294 294 294 293 293 293 293 293 293 293 293 294 296 298 299 296 292 293 295 296 296 296 296 295 294 295
318 317 315 314 313 311 310 307 303 301 301 302 301 301 301 302 303 303 301 300 299 299 298 298 297 297 297 296 297 300 302 302 302 301 300 299 297 295 294 294 293 293 293 293 293 293 293 293 293 294 296 296 294 292 293 295 297 296 296 296 295 294 295
319 317 316 315 313 312 311 309 305 302 301 302 302 301 302 303 304 303 302 300 299 298 299 298 297 297 297 296 297 298 300 302 302 302 301 300 298 297 296 294 293 293 293 293 293 292 292 293 293 293 293 293 292 292 294 296 297 296 296 296 295 294 294
319 317 316 315 314 313 311 309 307 304 301 302 302 302 302 303 303 303 302 300 299 298 299 298 298 297 297 297 296 297 299 301 301 301 301 300 299 299 298 296 294 293 293 293 292 292 292 293 293 293 292 292 292 293 295 295 295 296 295 295 295 294 293
319 318 317 316 315 313 312 310 308 306 302 302 303 303 302 302 303 302 302 301 300 299 299 299 298 297 297 297 296 296 297 299 300 300 301 301 300 300 299 298 295 293 293 293 292 292 292 292 293 292 292 292 292 294 295 296 296 296 295 295 295 294 293
Wind_Speed
3 5 7 5 7 6 6 5 5 6 7 6 7 7 8 8 8 8 9 9 9 9 8 7 7 8 7 7 7 7 7 7 7 8 9 8 8 8 7 8 9 9 8 9 10 11 12 14 12 10 9 9 9 9 11 12 12 12 13 14 14 13 13
3 3 3 3 5 5 6 6 5 5 6 6 6 6 7 7 8 8 9 9 10 9 7 7 8 8 7 7 7 7 6 7 6 6 7 7 8 8 7 7 8 8 8 7 7 9 8 10 11 11 11 11 11 11 12 11 10 12 12 12 12 12 11
4 3 2 2 5 5 5 6 7 6 5 6 5 5 5 6 7 8 8 8 9 9 8 8 8 8 8 8 7 7 6 6 6 6 5 5 6 7 6 7 8 8 8 7 7 8 8 8 9 11 12 12 11 12 12 10 10 11 11 10 10 10 10
3 2 2 2 3 5 5 5 7 7 6 5 5 4 5 6 7 7 7 7 7 8 8 9 8 7 7 7 6 6 5 5 5 5 4 4 5 5 6 7 7 7 7 8 8 8 8 9 10 11 12 12 10 9 9 8 8 11 11 9 10 9 8
4 3 3 1 1 2 4 3 4 5 5 4 4 5 5 6 6 5 5 5 7 7 8 9 8 7 6 6 6 5 5 5 5 4 4 4 3 3 5 7 7 7 7 7 8 7 8 8 9 10 11 11 10 8 7 6 6 9 8 8 10 10 9
3 4 3 2 2 1 3 3 2 2 3 4 5 5 5 6 6 4 3 4 5 6 7 8 8 7 7 6 5 5 4 4 5 5 5 4 2 3 4 6 7 8 7 6 6 6 6 6 7 9 10 10 9 7 7 7 6 6 7 9 11 11 9
3 4 2 2 2 1 2 4 4 2 2 4 5 4 5 6 6 4 4 5 5 5 6 7 7 6 7 7 6 4 2 2 3 3 4 3 2 2 3 5 9 9 7 7 6 5 5 5 6 8 9 10 8 6 7 7 6 6 8 10 10 10 10
4 4 3 5 3 1 1 2 5 4 2 2 4 4 5 5 5 5 5 5 5 5 5 6 6 6 7 8 8 5 4 5 5 2 2 2 3 2 2 5 8 7 8 10 11 8 5 4 7 8 9 10 8 6 7 7 8 8 9 9 9 9 9
6 5 5 4 3 2 2 0 4 5 4 3 3 4 5 6 7 6 4 4 4 4 4 5 4 5 6 8 9 7 6 9 8 5 3 4 4 4 4 5 4 5 8 12 13 12 7 5 9 10 9 8 8 7 5 6 8 9 8 8 9 10 9
6 5 3 2 1 2 1 1 1 4 5 4 4 3 7 6 7 4 3 4 4 3 3 4 4 4 4 6 7 7 6 8 6 5 4 4 5 5 5 4 3 4 7 8 7 8 7 8 11 10 9 8 7 7 5 5 8 9 9 9 10 10 10
5 4 4 3 1 1 1 3 1 3 5 3 3 3 9 5 6 3 3 3 4 3 3 4 5 4 2 3 3 5 4 4 3 4 4 4 5 6 5 3 3 4 5 4 2 3 5 7 9 9 8 8 6 5 5 5 8 9 7 9 11 12 11
6 5 5 5 4 3 2 3 1 2 6 5 2 5 11 5 5 3 3 4 4 3 3 5 7 6 3 1 1 3 4 3 3 5 6 4 5 6 6 5 4 4 4 4 4 7 8 7 6 6 5 6 4 4 7 5 6 8 7 9 11 12 12
7 6 5 5 7 7 5 2 2 2 6 9 1 7 10 4 3 1 3 4 4 5 5 5 6 4 4 2 0 2 6 6 5 7 6 5 4 5 6 5 5 4 4 4 6 9 10 8 5 4 3 3 3 5 8 5 6 10 10 10 11 11 12
7 7 7 8 8 7 6 4 2 4 5 9 2 9 5 1 0 2 4 2 3 6 6 4 3 2 4 3 2 3 6 6 5 7 7 6 5 5 5 5 5 5 5 5 6 8 10 9 7 4 3 4 5 7 8 6 9 12 11 11 11 10 11
9 10 10 9 6 4 3 3 2 3 5 6 5 9 1 1 2 4 4 4 4 5 3 0 2 2 3 5 4 3 4 4 5 6 6 6 5 5 5 6 6 6 6 5 5 8 10 10 9 7 5 5 6 10 10 8 8 10 11 10 10 10 10
9 11 9 8 7 5 4 3 2 1 4 3 4 6 2 1 3 5 5 5 4 3 1 1 1 4 5 6 5 4 4 4 4 4 4 4 3 3 3 3 5 6 6 5 5 7 9 10 10 10 8 6 7 9 10 9 7 6 8 10 9 10 10
8 9 8 8 8 6 5 3 3 2 3 2 4 6 4 2 4 6 4 2 3 3 4 4 3 2 3 4 5 6 6 5 5 3 2 1 1 2 3 2 2 3 3 4 5 7 8 9 11 11 11 9 7 7 7 8 8 7 6 7 7 9 9
6 8 9 8 6 6 5 4 3 4 3 2 3 6 5 4 5 5 3 3 3 4 5 5 5 4 3 3 4 5 7 7 5 3 2 3 4 5 5 5 5 4 3 2 4 6 7 9 11 12 12 11 10 9 8 8 9 9 9 9 8 7 8
6 8 8 7 7 6 6 5 4 4 4 4 3 5 5 4 5 5 5 5 4 4 6 6 6 6 5 5 5 5 7 7 4 3 4 6 7 6 6 6 6 6 5 4 3 3 4 6 9 12 13 12 10 10 10 9 9 8 8 9 9 7 7
8 9 8 7 7 6 6 7 6 4 5 5 4 5 6 6 6 6 5 5 5 6 6 7 8 8 6 6 7 7 7 6 4 5 7 8 7 7 7 7 6 6 6 5 5 4 3 4 6 9 12 13 11 9 9 9 9 9 8 7 7 7 6
8 9 9 7 7 7 7 9 7 6 8 8 5 4 5 6 6 5 5 6 6 6 6 7 8 8 8 8 8 8 9 7 5 6 8 8 7 7 6 6 6 6 6 6 5 5 5 5 5 6 9 12 12 10 10 8 8 8 9 8 7 5 5
8 8 8 7 9 10 10 9 7 8 9 10 8 6 5 5 5 4 5 6 5 4 5 6 6 7 8 9 9 9 9 7 5 6 7 7 7 6 5 5 6 7 8 8 7 6 7 6 6 5 5 7 9 10 10 9 8 7 7 7 7 5 4
10 9 8 8 10 12 11 8 8 8 9 10 10 8 7 6 5 5 6 5 4 5 6 7 6 6 7 9 10 9 9 8 5 5 7 7 6 6 6 6 7 9 9 9 9 8 8 8 8 7 6 4 4 5 6 8 8 6 5 6 5 4 5
11 10 9 9 11 12 10 8 9 9 9 9 10 10 9 7 7 7 8 5 5 6 6 6 6 7 7 8 10 10 9 8 7 6 6 6 6 6 6 6 8 9 10 10 10 10 9 9 9 8 7 6 5 3 3 4 6 7 5 5 5 4 6
13 11 10 12 13 12 10 9 10 10 9 8 9 10 10 8 9 10 8 5 6 7 7 6 6 7 7 8 9 10 9 9 8 7 5 4 4 5 6 7 8 10 10 10 11 11 10 9 9 8 8 7 7 6 5 4 4 6 6 6 6 6 7
14 12 12 14 14 12 11 10 11 11 10 9 9 10 11 10 10 10 8 6 7 6 7 7 6 8 8 9 10 10 10 9 9 9 7 5 4 4 5 6 8 8 7 7 9 10 9 8 8 8 8 8 8 8 7 7 6 6 7 7 7 8 9
17 14 14 16 15 13 13 11 12 12 10 10 10 11 12 11 10 9 8 7 7 6 7 7 7 8 9 10 10 9 10 10 9 9 9 8 6 6 5 5 6 5 4 5 7 8 8 9 8 8 8 8 8 8 7 7 7 7 8 9 8 9 10
20 16 16 17 15 14 14 13 13 13 12 11 11 12 13 12 11 10 9 7 7 7 7 8 8 8 9 9 9 8 8 8 7 7 8 8 9 9 7 5 5 5 4 5 5 5 8 9 8 7 7 8 8 8 7 8 9 9 9 10 10 10 11
22 19 19 18 16 16 16 14 14 14 13 12 12 12 13 13 13 12 10 9 8 8 8 8 8 8 9 9 8 7 6 5 6 6 7 8 9 9 8 6 5 5 5 4 5 5 7 8 5 5 6 7 8 8 8 9 10 10 10 11 11 11 11
24 21 20 19 17 17 16 14 14 15 15 14 14 13 14 14 14 13 12 10 9 9 9 9 9 9 9 9 9 8 6 4 4 6 7 8 7 7 7 5 5 6 5 4 4 5 7 8 5 4 6 7 7 7 8 10 11 11 11 12 11 11 11
25 23 22 20 18 18 17 15 15 17 16 15 15 14 15 15 14 14 13 12 10 10 9 9 9 9 9 9 9 9 8 5 5 5 6 6 6 7 7 4 3 5 6 4 4 4 5 7 5 3 5 5 4 5 7 9 11 11 11 12 11 11 10
26 24 23 21 19 19 17 15 16 18 17 16 16 15 16 15 15 15 14 13 11 10 10 10 10 10 10 10 10 11 11 7 6 5 5 5 6 8 7 5 6 7 6 5 3 3 3 4 4 4 4 0 2 4 6 9 12 11 11 13 13 11 11
27 25 24 22 20 20 18 16 17 18 19 18 17 16 16 15 15 15 15 14 13 12 12 11 11 11 11 11 12 13 12 9 6 6 5 5 6 9 9 8 8 8 6 5 4 3 3 3 3 2 3 3 2 2 5 8 12 13 13 13 12 11 12
28 26 25 23 21 21 20 17 17 19 20 19 19 18 17 16 16 16 16 16 14 13 13 13 12 13 12 12 13 14 13 12 10 8 6 6 6 7 9 10 9 8 7 6 4 3 3 3 2 2 4 4 2 1 1 5 11 12 11 8 5 6 7
28 27 26 25 23 22 21 19 18 19 20 20 20 19 19 18 18 18 17 16 15 14 15 14 13 13 13 13 15 15 14 14 13 12 10 8 7 8 9 9 10 10 8 7 5 4 3 3 3 3 4 3 2 1 3 6 9 8 5 1 3 2 3
28 28 27 27 25 23 22 21 19 20 21 22 21 20 21 20 19 19 19 17 16 16 16 15 15 14 14 14 15 16 16 14 14 14 13 9 9 11 10 7 9 11 9 7 6 5 4 3 3 3 3 3 3 4 6 6 7 5 2 0 3 3 1
28 28 28 28 27 25 24 22 20 20 22 24 23 22 22 22 21 20 19 18 17 18 17 16 16 16 15 15 15 16 16 15 15 16 15 12 12 16 13 8 9 11 10 9 7 6 5 4 4 4 3 3 4 6 6 5 5 3 1 1 1 3 4
Wind_Direction
63 34 46 352 322 356 7 2 15 6 4 11 11 12 11 11 10 6 8 7 2 359 351 345 350 348 343 330 316 315 311 299 297 302 304 310 316 313 303 289 283 288 299 306 308 309 314 318 320 323 332 336 334 333 323 324 340 342 346 354 353 352 354
88 76 65 319 317 6 10 -0 11 7 2 7 7 7 8 10 8 6 5 5 7 8 358 350 353 348 339 330 324 325 323 316 316 315 311 310 311 320 328 318 306 306 316 321 306 299 313 327 330 329 338 344 343 352 350 342 356 359 358 9 9 5 6
112 125 105 355 348 14 15 1 6 9 4 1 358 355 0 3 2 3 3 5 10 11 8 3 357 350 341 341 346 343 336 331 328 328 331 325 319 328 343 334 327 329 329 331 326 324 335 345 343 336 342 350 347 357 4 1 16 21 14 23 25 14 12
118 114 80 32 8 9 7 11 15 12 5 1 348 338 351 354 353 -0 3 5 12 11 12 12 9 7 359 357 7 8 3 355 344 340 345 351 346 343 352 348 344 348 347 347 348 346 349 352 348 345 351 358 351 355 7 6 27 38 29 27 32 26 14
140 122 92 0 341 26 4 6 28 13 353 342 332 332 344 343 340 352 358 8 17 12 15 23 26 29 25 19 24 27 27 30 28 21 15 12 6 6 17 17 11 5 357 354 357 359 -0 358 356 354 351 356 2 12 21 23 42 49 37 33 44 43 28
141 126 109 303 295 52 12 358 12 0 343 331 328 338 347 336 324 333 0 22 27 19 16 25 27 27 29 24 24 31 37 49 51 48 43 29 19 40 39 32 25 16 5 359 356 354 355 358 5 0 354 5 20 27 34 45 57 53 37 44 58 52 36
124 120 141 249 262 79 19 347 323 301 338 340 326 347 6 341 327 351 32 38 32 22 13 20 23 23 24 11 2 15 39 49 40 43 44 42 66 75 61 53 36 20 19 23 5 341 338 354 13 9 7 17 25 36 48 48 50 53 41 42 57 53 37
133 137 199 232 233 148 125 354 336 312 306 332 330 9 21 352 353 27 44 42 34 17 11 19 24 27 24 10 2 15 52 37 12 8 34 47 86 90 100 74 42 18 28 26 8 359 357 14 27 21 20 21 18 36 58 52 45 53 49 37 46 54 45
156 181 214 225 237 237 202 285 351 324 311 336 345 28 34 4 14 40 37 40 39 17 21 28 26 28 29 24 8 2 48 46 14 9 43 42 58 70 98 98 57 34 49 32 11 9 24 61 48 26 19 23 19 25 46 57 48 41 31 28 37 53 59
165 196 200 171 243 307 274 224 338 317 318 349 347 44 70 24 3 26 20 33 44 22 37 47 40 33 31 50 21 350 44 61 1 341 40 46 52 59 72 88 73 63 65 54 27 13 26 66 56 26 9 14 24 30 37 63 65 40 11 14 39 58 70
174 192 170 156 165 46 312 260 267 316 309 336 349 70 94 51 334 352 13 31 52 38 42 45 42 34 10 71 41 343 35 73 317 333 30 52 73 67 52 41 45 64 66 65 58 23 35 64 65 48 24 9 9 36 48 68 80 64 20 14 43 58 66
179 185 178 165 170 174 222 276 299 340 313 316 352 98 98 66 318 328 18 27 47 44 50 52 43 24 341 349 25 346 40 58 21 30 36 49 82 74 51 24 18 53 67 63 61 53 44 47 74 87 60 9 351 46 66 77 84 79 58 34 48 58 51
178 177 181 174 188 193 182 227 204 102 319 307 330 102 93 74 289 290 53 40 49 52 50 62 61 20 321 306 341 66 68 65 59 54 43 47 82 85 64 42 32 47 56 60 69 66 52 38 50 90 78 29 30 64 70 80 81 77 68 44 48 66 55
184 174 183 186 200 202 182 211 193 108 310 293 101 93 74 27 206 105 98 96 89 70 49 51 82 23 321 346 48 98 87 77 77 72 57 50 66 80 67 53 51 53 52 59 72 75 64 49 39 38 54 67 76 80 82 95 91 82 72 44 36 63 70
182 184 188 181 187 203 195 208 166 117 286 284 106 96 49 272 111 101 100 91 86 84 68 204 141 92 43 37 43 82 95 85 86 85 77 66 69 82 79 73 70 63 57 62 78 86 78 64 48 34 46 83 94 92 96 109 108 99 92 70 44 47 65
184 199 195 179 178 188 204 188 130 158 275 278 111 105 65 16 87 92 88 80 85 92 55 289 166 120 100 72 56 59 72 80 84 86 92 89 88 101 97 92 92 85 78 77 86 94 93 85 68 49 46 72 100 102 101 104 98 99 110 103 79 57 50
196 203 191 185 179 176 194 169 132 222 250 223 139 126 121 116 99 90 84 94 110 98 69 44 39 85 125 112 92 82 73 74 79 80 92 96 61 60 52 46 70 82 90 99 105 105 101 98 89 71 56 59 80 96 103 102 91 84 91 93 91 83 66
198 195 190 190 182 170 169 156 185 226 202 162 149 136 137 132 107 100 108 109 101 102 96 83 60 47 80 118 116 106 95 86 82 82 79 64 56 60 63 63 63 52 43 74 114 117 109 108 104 91 73 60 64 73 80 90 92 85 79 71 66 81 88
187 196 197 189 183 165 135 141 225 236 162 154 162 143 132 110 100 116 130 122 116 111 104 104 92 73 76 97 103 110 110 102 97 88 79 72 68 69 72 76 80 78 72 73 87 104 114 124 125 113 95 77 68 70 73 76 82 83 86 84 70 67 84
181 193 202 195 177 153 150 181 216 213 161 145 129 132 137 136 141 153 151 149 153 140 130 131 120 102 96 99 98 100 100 98 97 86 80 79 77 75 74 76 79 81 84 84 81 74 72 104 130 128 114 101 91 86 85 83 85 85 81 82 81 77 81
184 192 206 201 158 148 197 216 207 190 166 137 127 157 157 148 156 166 174 188 192 177 164 156 140 125 116 107 102 101 96 91 89 89 89 89 87 84 82 82 83 81 81 80 80 84 84 84 105 129 127 122 118 111 105 101 101 99 88 74 66 71 89
189 193 202 192 163 170 208 220 195 184 172 151 153 168 157 150 147 152 193 216 212 180 161 162 164 153 134 122 114 108 104 99 92 97 103 100 93 87 82 82 87 85 82 80 76 81 90 90 93 107 125 137 138 131 125 120 114 117 119 100 75 64 84
190 193 196 187 176 183 204 207 184 177 175 171 169 159 151 152 147 167 219 227 183 157 158 162 170 168 152 140 130 119 115 109 100 100 107 108 106 99 91 91 93 91 89 87 84 82 88 91 89 91 99 116 142 150 147 138 126 125 140 130 107 89 86
189 189 190 185 179 186 200 197 182 179 181 185 182 169 159 152 160 200 230 214 164 163 158 153 165 175 171 161 146 133 126 117 108 105 109 117 121 110 102 100 101 102 99 93 88 84 84 86 85 85 89 92 100 115 130 137 129 123 123 117 105 90 83
190 187 182 181 182 190 199 190 183 189 189 189 190 178 166 166 184 210 225 195 172 171 158 153 169 177 177 172 155 136 126 122 116 111 108 120 132 125 120 119 116 115 112 103 96 87 78 79 83 83 84 87 90 90 85 82 95 110 109 99 91 81 75
191 189 177 179 187 193 197 192 191 196 193 193 195 183 177 184 196 213 221 194 177 175 163 160 170 176 177 174 158 140 135 137 134 128 126 126 128 122 123 131 133 131 126 119 111 99 84 76 76 78 78 79 82 81 80 79 78 85 91 85 81 77 71
192 191 177 183 193 193 192 195 195 196 196 197 197 191 192 194 194 209 218 196 182 183 171 165 173 179 180 178 169 160 157 158 157 155 153 146 135 125 128 148 155 147 132 124 123 117 103 85 72 73 74 72 76 77 75 78 76 75 79 75 71 72 68
192 192 182 187 195 189 191 200 199 197 198 199 199 198 200 197 192 205 216 202 190 190 179 174 178 181 184 188 187 177 168 171 177 176 172 168 162 160 169 181 169 147 133 128 133 128 109 90 69 66 75 72 70 71 70 74 75 71 69 67 63 64 63
193 192 186 192 195 188 195 204 202 198 198 200 203 201 201 199 195 203 215 208 194 193 190 182 181 185 189 192 191 172 156 169 178 169 172 179 180 184 189 185 169 159 153 142 137 127 109 97 76 59 72 73 69 69 68 69 70 67 67 66 61 61 60
195 193 189 195 196 192 201 209 204 200 200 202 204 201 201 203 201 203 215 214 198 196 197 188 185 190 189 192 191 167 146 173 191 178 187 193 191 199 200 191 183 179 174 159 140 131 116 109 92 40 43 53 59 68 75 75 71 67 65 62 57 56 55
196 195 194 199 198 196 205 211 205 201 202 205 206 204 204 206 204 206 215 217 206 200 201 196 193 194 190 192 190 162 150 188 221 204 210 210 195 201 209 208 196 188 185 178 156 146 133 122 114 75 50 41 31 46 69 76 71 70 74 70 63 62 62
199 199 198 201 201 200 207 212 207 203 204 205 206 205 206 207 207 208 215 219 213 204 202 202 197 196 194 191 185 166 159 186 226 226 225 218 198 201 209 204 191 189 192 190 173 168 165 157 158 133 110 83 337 42 75 74 61 57 63 59 49 49 54
201 201 202 203 203 204 209 214 209 204 204 206 207 206 206 206 208 211 214 218 217 208 205 206 201 200 199 190 185 176 164 171 202 219 228 228 214 209 210 207 201 196 197 198 190 189 191 196 208 167 147 201 260 71 93 81 61 51 51 43 25 23 32
203 202 203 204 204 205 211 216 213 207 204 205 207 205 202 202 208 213 215 219 220 213 208 208 204 204 204 193 189 187 178 176 183 190 208 230 235 225 216 211 209 203 201 205 205 206 208 203 208 188 176 201 237 262 134 89 67 57 56 48 6 12 38
205 203 202 204 205 205 210 215 216 211 204 204 206 203 199 201 207 213 218 220 220 217 214 210 207 208 208 201 198 198 195 191 182 178 190 212 235 245 234 215 209 209 208 210 212 216 222 215 206 187 177 191 196 146 138 104 81 70 68 55 302 342 86
206 203 202 205 206 207 210 213 217 214 204 202 205 203 199 203 207 213 220 220 217 220 220 213 209 211 211 209 207 205 204 201 191 184 186 191 216 240 243 218 208 213 211 213 219 222 227 224 217 199 178 179 162 127 118 103 89 85 96 40 321 334 20
208 203 203 207 206 206 209 212 216 215 205 200 205 205 203 205 208 212 220 220 217 222 223 215 211 213 213 213 214 210 207 208 202 194 187 182 207 234 244 233 220 219 215 216 222 224 229 231 221 208 186 174 162 137 118 97 86 89 91 56 350 332 335